Location: Capannuccia
(43.7000°N, 11.3000°E)
Time: 00:25:25
(UTC+00:00)

STARLINK-2651 - Pass Details

Date: 30 July 2021
Orbit: 546 x 548 km, 53.1° (Epoch: 20 September)

Event Time Altitude Azimuth Distance (km) Brightness Sun altitude
Rises 20:50:54 0° 292° (WNW) 2,720 8.2 -19.1°
Reaches altitude 10° 20:53:45 10° 272° (W) 1,821 6.8 -19.4°
Maximum altitude 20:56:26 17° 232° (SW) 1,429 5.7 -19.7°
Enters shadow 20:57:15 16° 217° (SW) 1,468 5.6 -19.8°
